This is the latest recevied weather packets stored in our database for station/object KX4O-13. If no packets are shown the sender has not sent any weather packets the latest 10 day(s).
| Time | Temp. | Humidity | Pressure | Rain* | Wind** | Luminosity | Snow |
|---|---|---|---|---|---|---|---|
| 1777656059 | 17.22° C | 41% | 1013.4 hPa | 0 mm | - | 877 W/m² | - |
| 1777655759 | 17.22° C | 43% | 1013.4 hPa | 0 mm | - | 881 W/m² | - |
| 1777655459 | 17.22° C | 40% | 1013.4 hPa | 0 mm | - | 888 W/m² | - |
| 1777655160 | 17.22° C | 39% | 1013.6 hPa | 0 mm | - | 879 W/m² | - |
| 1777654859 | 17.22° C | 41% | 1013.6 hPa | 0 mm | - | 874 W/m² | - |
| 1777654559 | 17.22° C | 38% | 1013.7 hPa | 0 mm | - | 870 W/m² | - |
| 1777654260 | 17.22° C | 39% | 1013.8 hPa | 0 mm | - | 867 W/m² | - |
| 1777653960 | 17.22° C | 45% | 1013.7 hPa | 0 mm | - | 861 W/m² | - |
| 1777653659 | 16.67° C | 42% | 1014 hPa | 0 mm | - | 858 W/m² | - |
| 1777653360 | 16.67° C | 41% | 1014 hPa | 0 mm | - | 851 W/m² | - |
| 1777653059 | 16.67° C | 43% | 1014 hPa | 0 mm | - | 849 W/m² | - |
| 1777652760 | 16.67° C | 43% | 1014.1 hPa | 0 mm | - | 842 W/m² | - |
| 1777652460 | 16.67° C | 42% | 1014.2 hPa | 0 mm | - | 838 W/m² | - |
| 1777652160 | 16.11° C | 43% | 1014.2 hPa | 0 mm | - | 835 W/m² | - |
| 1777651860 | 16.67° C | 43% | 1014.2 hPa | 0 mm | - | 833 W/m² | - |
| 1777651560 | 15.56° C | 42% | 1014.3 hPa | 0 mm | - | 826 W/m² | - |
| 1777651260 | 15.56° C | 43% | 1014.4 hPa | 0 mm | - | 814 W/m² | - |
| 1777650960 | 16.11° C | 42% | 1014.6 hPa | 0 mm | - | 814 W/m² | - |
| 1777650660 | 15.56° C | 45% | 1014.6 hPa | 0 mm | - | 807 W/m² | - |
| 1777650360 | 15.56° C | 47% | 1014.9 hPa | 0 mm | - | 796 W/m² | - |
| 1777650060 | 15.56° C | 45% | 1014.9 hPa | 0 mm | - | 786 W/m² | - |
| 1777649760 | 15.56° C | 47% | 1015 hPa | 0 mm | - | 782 W/m² | - |
| 1777649460 | 15.56° C | 44% | 1015.1 hPa | 0 mm | - | 770 W/m² | - |
| 1777649160 | 15° C | 45% | 1015.2 hPa | 0 mm | - | 747 W/m² | - |
| 1777648860 | 15° C | 48% | 1015.3 hPa | 0 mm | - | 751 W/m² | - |
* Rain latest hour (hover to see other rain measurements)
** Current wind speed in m/s (hover to see current wind gust speed)